Satellite: DO-64
Catalog number: 32789
Epoch time:      08338.85035763
Element set:     228
Inclination:      097.9735 deg
RA of node:       038.1561 deg
Eccentricity:    0.0014812
Arg of perigee:   309.0133 deg
Mean anomaly:     050.9734 deg
Mean motion:   14.81547866 rev/day
Decay rate:       1.22e-06 rev/day^2
Epoch rev:            3252
Checksum:              314

Satellite: AAUSAT2
Catalog number: 32788
Epoch time:      08339.84759109
Element set:     218
Inclination:      097.9696 deg
RA of node:       039.0876 deg
Eccentricity:    0.0014628
Arg of perigee:   308.6253 deg
Mean anomaly:     051.3578 deg
Mean motion:   14.81622111 rev/day
Decay rate:       -8.8e-07 rev/day^2
Epoch rev:            3267
Checksum:              335

Satellite: COMPASS
Catalog number: 32787
Epoch time:      08339.72894612
Element set:     218
Inclination:      097.9691 deg
RA of node:       038.9396 deg
Eccentricity:    0.0015114
Arg of perigee:   306.9281 deg
Mean anomaly:     053.0544 deg
Mean motion:   14.81508067 rev/day
Decay rate:       1.38e-06 rev/day^2
Epoch rev:            3265
Checksum:              318

Satellite: CAPE1
Catalog number: 31130
Epoch time:      08339.81763962
Element set:     469
Inclination:      098.0203 deg
RA of node:       035.8602 deg
Eccentricity:    0.0102984
Arg of perigee:   166.4651 deg
Mean anomaly:     193.9343 deg
Mean motion:   14.52013486 rev/day
Decay rate:        4.1e-07 rev/day^2
Epoch rev:            8648
Checksum:              299

Satellite: MAST
Catalog number: 31126
Epoch time:      08339.07666883
Element set:     475
Inclination:      098.0187 deg
RA of node:       036.5301 deg
Eccentricity:    0.0094946
Arg of perigee:   164.7341 deg
Mean anomaly:     195.6778 deg
Mean motion:   14.53462671 rev/day
Decay rate:       1.31e-06 rev/day^2
Epoch rev:            8669
Checksum:              330

Satellite: FALCON
Catalog number: 30776
Epoch time:      08338.89241876
Element set:     452
Inclination:      035.4334 deg
RA of node:       204.1810 deg
Eccentricity:    0.0001510
Arg of perigee:   000.7136 deg
Mean anomaly:     359.3582 deg
Mean motion:   15.03117493 rev/day
Decay rate:       2.89e-06 rev/day^2
Epoch rev:            9569
Checksum:              289

Satellite: CO-58
Catalog number: 28895
Epoch time:      08339.11984776
Element set:     183
Inclination:      098.0804 deg
RA of node:       228.9293 deg
Eccentricity:    0.0016867
Arg of perigee:   236.9227 deg
Mean anomaly:     123.0539 deg
Mean motion:   14.59720919 rev/day
Decay rate:        7.8e-07 rev/day^2
Epoch rev:           16527
Checksum:              363

Satellite: ISS
Catalog number: 25544
Epoch time:      08339.75781152
Element set:     793
Inclination:      051.6394 deg
RA of node:       222.1524 deg
Eccentricity:    0.0006091
Arg of perigee:   063.0491 deg
Mean anomaly:     297.1655 deg
Mean motion:   15.71694468 rev/day
Decay rate:      7.434e-05 rev/day^2
Epoch rev:           57537
Checksum:              322

Satellite: PO-34
Catalog number: 25520
Epoch time:      08339.75967809
Element set:     135
Inclination:      028.4593 deg
RA of node:       116.7575 deg
Eccentricity:    0.0005060
Arg of perigee:   342.2744 deg
Mean anomaly:     017.7683 deg
Mean motion:   15.17266283 rev/day
Decay rate:       3.33e-06 rev/day^2
Epoch rev:           55909
Checksum:              324

Satellite: HUBBLE
Catalog number: 20580
Epoch time:      08339.29660488
Element set:     276
Inclination:      028.4709 deg
RA of node:       293.6871 deg
Eccentricity:    0.0003458
Arg of perigee:   033.5749 deg
Mean anomaly:     326.5059 deg
Mean motion:   15.00434781 rev/day
Decay rate:       3.45e-06 rev/day^2
Epoch rev:           82055
Checksum:              317

/EX



_______________________________________________
Via the Keps mailing list courtesy of AMSAT-NA
http://amsat.org/mailman/listinfo/keps

--- ViaMAIL!/WC v1.60d
 * Origin: Chowdanet (401-724-4410) telnet://chowdanet.com  (1:323/120)